This is the latest recevied weather packets stored in our database for station/object K9ZOG. If no packets are shown the sender has not sent any weather packets the latest 10 day(s).
| Time | Temp. | Humidity | Pressure | Rain* | Wind** | Luminosity | Snow |
|---|---|---|---|---|---|---|---|
| 1777994355 | 10° C | 46% | 1008 hPa | 0 mm | - | 640 W/m² | - |
| 1777994053 | 10° C | 46% | 1008.3 hPa | 0 mm | - | 536 W/m² | - |
| 1777993755 | 9.44° C | 47% | 1008.3 hPa | 0 mm | - | 532 W/m² | - |
| 1777993453 | 9.44° C | 46% | 1008.3 hPa | 0 mm | - | 398 W/m² | - |
| 1777993155 | 9.44° C | 47% | 1008.4 hPa | 0 mm | - | 291 W/m² | - |
| 1777992855 | 9.44° C | 47% | 1008.5 hPa | 0 mm | - | 324 W/m² | - |
| 1777992555 | 9.44° C | 47% | 1008.5 hPa | 0 mm | - | 275 W/m² | - |
| 1777992254 | 9.44° C | 47% | 1008.4 hPa | 0 mm | - | 244 W/m² | - |
| 1777991955 | 9.44° C | 46% | 1008.2 hPa | 0 mm | - | 219 W/m² | - |
| 1777991653 | 9.44° C | 47% | 1008.1 hPa | 0 mm | - | 215 W/m² | - |
| 1777991353 | 9.44° C | 46% | 1008.1 hPa | 0 mm | - | 268 W/m² | - |
| 1777991053 | 9.44° C | 45% | 1008.1 hPa | 0 mm | - | 262 W/m² | - |
| 1777990755 | 9.44° C | 47% | 1008.1 hPa | 0 mm | - | 231 W/m² | - |
| 1777990454 | 9.44° C | 47% | 1008 hPa | 0 mm | - | 234 W/m² | - |
| 1777989856 | 9.44° C | 46% | 1008 hPa | 0 mm | - | 167 W/m² | - |
| 1777989557 | 9.44° C | 47% | 1007.9 hPa | 0 mm | - | 191 W/m² | - |
| 1777989257 | 9.44° C | 47% | 1008 hPa | 0 mm | - | 203 W/m² | - |
| 1777988957 | 9.44° C | 48% | 1007.7 hPa | 0 mm | - | 230 W/m² | - |
| 1777988663 | 8.89° C | 48% | 1007.6 hPa | 0 mm | - | 238 W/m² | - |
| 1777988356 | 8.89° C | 49% | 1007.6 hPa | 0 mm | - | 211 W/m² | - |
| 1777988065 | 8.89° C | 50% | 1007.4 hPa | 0 mm | - | 185 W/m² | - |
| 1777987757 | 8.89° C | 51% | 1007.3 hPa | 0 mm | - | 205 W/m² | - |
| 1777987457 | 8.89° C | 52% | 1007.4 hPa | 0 mm | - | 197 W/m² | - |
| 1777987155 | 8.89° C | 55% | 1007.4 hPa | 0 mm | - | 171 W/m² | - |
| 1777986853 | 8.89° C | 55% | 1007.8 hPa | 0 mm | - | 147 W/m² | - |
* Rain latest hour (hover to see other rain measurements)
** Current wind speed in m/s (hover to see current wind gust speed)